www.pogodaiklimat.ru

Погода и климат >> Архив погоды >> Россия >> Якутия >> Усть-Юдома


ПОГОДА в Усть-Юдоме

  • Прогноз погоды в Усть-Юдоме
  • Монитор погоды в Усть-Юдоме

АРХИВ ПОГОДЫ в Усть-Юдоме

Время (UTC), дата Ветер
(напр.,м/с)
 
Видим.   Явления Облачность Т
(С)
Тd
(С)
f
(%)
Тe
(С)
Тes
(С)
Комфортность P
(гПа)
Po
(гПа)
Тmin
(С)
Tmax
(С)
R
(мм)
R24
(мм)
S
(см)
15 9.07 штиль 0 50 км 6/0
[Cs]
+18.5 +9.0 54 +19 +19 1007.4 982.7
18 9.07 штиль 0 50 км 3/0
[Ci fib]
+17.4 +10.5 64 +17 +17 1007.5 982.7
21 9.07 штиль 0 50 км 4/0
[Cs]
+19.5 +11.3 59 +21 +23 комфорт 1007.8 983.2 +17.4
00 10.07 штиль 0 50 км 10/0
[Ac As]
+20.4 +11.4 56 +22 +26 комфорт 1008.0 983.5
03 10.07 Ю 3 50 км 10/10 600 м
[Cb cap]
+20.9 +13.8 64 +24 +24 комфорт 1006.6 982.3
06 10.07 штиль 0 50 км 10/0
[Cs]
+27.3 +17.2 54 +31 +42 душно 1004.9 981.1
09 10.07 штиль 0 50 км 10/0
[]
+27.2 +12.5 40 +29 +30 жарко 1003.8 980.0 +27.3
12 10.07 штиль 0 50 км 8/0
[Ac lent]
+20.6 +10.3 52 +22 +22 комфорт 1004.8 980.4
15 10.07 штиль 0 50 км 8/0
[Cs]
+18.2 +10.4 60 +18 +18 1005.5 980.9
18 10.07 штиль 0 50 км 1/0
[Cs]
+17.1 +8.6 57 +17 +17 1010.5 985.7
21 10.07 штиль 0 50 км 8/0
[Ac lent Ci fib]
+17.6 +10.3 62 +18 +19 1007.7 982.9 +17.1
00 11.07 штиль 0 50 км 10/0
[Ac As]
+18.4 +10.0 58 +19 +23 1007.6 982.9
03 11.07 штиль 0 50 км 10/3 1000 м
[Cu hum Cs]
+23.4 +12.4 50 +26 +37 жарко 1007.4 983.1
06 11.07 штиль 0 50 км 10/6 600 м
[Cb cap Ci fib]
+26.4 +16.4 54 +30 +34 душно 1007.1 983.2
09 11.07 штиль 0 50 км 6/3 1000 м
[Cu hum Ci fib]
+27.0 +16.6 53 +31 +33 душно 1005.4 981.6 +27.0
12 11.07 штиль 0 50 км 3/3 1000 м
[Sc]
+22.2 +14.0 60 +25 +25 комфорт 1007.0 982.7
15 11.07 штиль 0 50 км ясно +18.5 +11.6 64 +19 +19 1008.3 983.6
21 11.07 штиль 0 50 км 10/0
[Cs]
+17.7 +11.3 66 +18 +20 1010.0 985.2 +16.4
00 12.07 штиль 0 50 км ясно +18.3 +10.0 58 +19 +31 опасность
простуды
1009.8 985.1
03 12.07 штиль 0 50 км ясно +24.2 +12.4 48 +26 +45 жарко 1007.8 983.6
06 12.07 штиль 0 50 км ясно +29.0 +13.2 38 +31 +43 жарко 1005.7 982.0
09 12.07 штиль 0 50 км ясно +29.4 +14.4 40 +31 +34 жарко 1004.9 981.2 +29.4
12 12.07 штиль 0 50 км ясно +24.9 +15.7 57 +28 +28 жарко 1005.6 981.6
15 12.07 штиль 0 50 км 3/0
[Ci fib]
+19.2 +12.4 65 +20 +20 1006.6 982.1
18 12.07 штиль 0 50 км 4/0
[Ci fib]
+16.5 +11.5 72 +16 +16 1007.7 982.9
21 12.07 штиль 0 50 км ясно +17.3 +11.4 68 +17 +20 1007.9 983.1 +16.5
00 13.07 штиль 0 50 км ясно +19.4 +12.3 63 +21 +33 комфорт 1008.0 983.4
03 13.07 штиль 0 50 км 4/4 600 м
[Cb cap]
+26.9 +17.0 55 +31 +42 душно 1006.7 982.8
06 13.07 штиль 0 50 км 10/6 600 м
[Cb cap Cs]
+28.2 +16.5 49 +32 +36 душно 1004.8 981.1
09 13.07 штиль 0 50 км 9/6 600 м
[Cb cap Cs]
+28.7 +15.6 45 +32 +33 душно 1004.3 980.6 +28.7
12 13.07 штиль 0 50 км 9/0
[Ac trans Ci fib]
+22.8 +16.8 69 +28 +28 душно 1004.9 980.8
15 13.07 штиль 0 50 км 4/0
[Ci fib]
+18.1 +12.2 68 +18 +18 1006.3 981.7
18 13.07 штиль 0 50 км ясно +17.5 +12.1 71 +18 +18 1007.4 982.6
21 13.07 штиль 0 50 км ясно +18.2 +12.3 68 +18 +21 1007.6 982.9 +17.5
00 14.07 штиль 0 50 км ясно +19.5 +13.0 66 +21 +34 комфорт 1006.8 982.3
03 14.07 Ю 1 50 км 8/0
[Cs]
+28.5 +15.3 45 +31 +45 душно 1005.6 981.9
06 14.07 Ю 3 50 км 10/6 600 м
[Cb cap Cs]
+28.3 +14.8 44 +31 +33 душно 1005.1 981.4
09 14.07 штиль 0 50 км 4/1 1000 м
[Cu hum Ci fib]
+28.6 +15.4 45 +31 +34 жарко 1004.1 980.4 +28.6
12 14.07 штиль 0 50 км 8/5 1000 м
[Sc Ac lent]
+23.5 +16.7 66 +27 +27 душно 1004.6 980.5
15 14.07 штиль 0 50 км 4/0
[Ci fib]
+18.3 +11.8 66 +19 +19 1009.3 981.7
18 14.07 штиль 0 50 км ясно +16.9 +11.4 70 +17 +17 1007.6 982.8
21 14.07 штиль 0 50 км 4/0
[Cs]
+17.6 +11.6 68 +18 +20 1077.7 982.9 +16.9
00 15.07 штиль 0 50 км 4/0
[Cs]
+21.9 +14.0 61 +25 +37 комфорт 1007.1 982.8
03 15.07 штиль 0 50 км 4/4 1000 м
[Cu hum]
+29.0 +13.0 37 +30 +42 жарко 1005.7 982.0
06 15.07 штиль 0 50 км 6/6 1000 м
[Cu hum]
+29.8 +12.8 35 +31 +36 жарко 1004.3 980.6
09 15.07 штиль 0 50 км 6/3 1000 м
[Cu hum Ac trans]
+29.3 +16.7 47 +33 +34 душно 1004.3 980.7 +29.8
12 15.07 штиль 0 50 км 8/0
[Ac trans]
+24.4 +18.1 68 +29 +29 душно 1005.1 981.1
15 15.07 штиль 0 50 км 8/0
[Ci fib]
+18.2 +12.5 69 +18 +18 1006.5 981.9
18 15.07 штиль 0 50 км ясно +17.8 +12.8 73 +18 +18 1007.0 982.4
21 15.07 штиль 0 50 км 6/0
[Cs]
+18.1 +11.5 65 +18 +21 1007.3 982.6 +17.8
00 16.07 штиль 0 50 км 6/0
[Cs]
+21.3 +12.7 58 +24 +35 комфорт 1007.1 982.6
03 16.07 З 1 50 км 6/4 1000 м
[Cu hum Ci fib]
+29.1 +17.1 48 +33 +42 очень
душно
1004.7 981.0
06 16.07 З 3 50 км 8/3 1000 м
[Cu hum Cs]
+29.9 +15.1 41 +32 +37 жарко 1003.6 980.0
09 16.07 штиль 0 50 км 4/1 1000 м
[Cu hum Ci fib]
+29.5 +15.0 41 +32 +34 душно 1003.3 979.7 +29.9

 

Местоположение метеостанции Усть-Юдома (Якутия, Россия): широта 59.18 долгота 135.10 высота над уровнем моря 212 м.

В архиве по умолчанию представлена погода в Усть-Юдоме за последнюю неделю. Архивные данные за месяц целиком и за предыдущие месяцы, начиная с января 2011 года, Вы можете получить, выбрав интересующий диапазон дат из раскрывающегося списка и нажав кнопку "Ввод!".


*Определитесь, кто Вы:
робот инопланетянин человек

Внимание! Время в таблицах - всемирное. Для получения местного времени необходимо прибавить поправку, которая равна 9 ч.

Смотрите также архив погоды в соседних городах и на ближайших метеорологических станциях:

Погода в Усть-Миле (Якутия, Россия) (129 км)
Погода в Усть-Мае (Якутия, Россия) (136 км)
Погода в Югоренке (Якутия, Россия) (156 км)
Погода в Нелькане (Хабаровский край, Россия) (180 км)
Погода в Амге (Якутия, Россия) (261 км)
Погода в Учуре (Якутия, Россия) (263 км)
Погода в Чюльбю (Якутия, Россия) (290 км)
Погода в Охотском Перевозе (Якутия, Россия) (300 км)
Погода в Тегюльте (Якутия, Россия) (319 км)
Погода в Чурапче (Якутия, Россия) (345 км)

Пояснения к столбцам:

Ветер - указаны скорость ветра в м/с - средняя за 10 мин, порывы в срок и между сроками (в фигурных скобках) и направление, откуда дует ветер: С - северный, СВ - северо-восточный, В - восточный, ЮВ - юго-восточный, Ю - южный, ЮЗ - юго-западный, З - западный, СЗ - северо-западный.
Видимость - горизонтальная дальность видимости в метрах или километрах. При видимости от 1 до 10 км при отсутствии осадков обычно наблюдается дымка, при ухудшении видимости до 1 км и менее - туман. В сухую погоду видимость может ухудшаться дымом, пылью или мглою.
Явления - указаны атмосферные явления, наблюдавшиеся в срок или в последний час перед сроком; фигурными скобками обозначены явления, наблюдавшиеся между сроками (за 1-3 часа до срока); квадратными скобками обозначены град или гололедные отложения с указанием их диаметра в мм.
Облачность - указаны через наклонную черту общая и нижняя облачность в баллах и высота нижней границы облаков в метрах; квадратными скобками обозначены формы облаков: Ci - перистые, Cs - перисто-слоистые, Cc - перисто-кучевые, Ac - высококучевые, As - высокослоистые, Sc - слоисто-кучевые, Ns - слоисто-дождевые, Cu - кучевые, Cb - кучево-дождевые. Подробнее классификацию облаков см. в Атласе облаков (PDF).
T - Температура воздуха - температура, измеренная на высоте 2 м над землей.
Td - Температура точки росы - температура, при понижении до которой содержащийся в воздухе водяной пар достигнет насыщения.
f - Относительная влажность воздуха - влажноcть воздуха, измеренная на высоте 2 м над землей.
Te - Эффективная температура - температура, которую ощущает одетый по сезону человек в тени. Характеристика душности погоды. При расчете учитывается влияние влажности воздуха и скорости ветра на теплоощущения человека.
Tes - Эффективная температура на солнце - температура, которую ощущает человек, с поправкой на солнечный нагрев. Характеристика знойности погоды. Зависит от высоты солнца над горизонтом, облачности и скорости ветра. Ночью, в пасмурную погоду, а также при ветре 12 м/с и более поправка равна нулю.
P - Атмосферное давление - приведенное к уровню моря атмосферное давление.
Po - Атмосферное давление - измеренное на уровне метеостанции атмосферное давление.
Tmin - Минимальная температура - минимум температуры воздуха на высоте 2 м над землей.
Tmax - Максимальная температура - максимум температуры воздуха на высоте 2 м над землей.
R - Количество осадков - Количество выпавших осадков за период времени, мм. При наведении курсора мыши на число - период времени, за который выпало указанное количество осадков.
R24 - Количество осадков - Количество выпавших осадков за 24 часа, мм.
S - Снежный покров - Высота снежного покрова, см. При наведении курсора мыши на число - состояние снежного покрова и степень покрытия местности в баллах.